[Iaude] MPEC S80: 2016 SN3 [a=1.97,e=0.74,i=5.6,H=23.3]

mpec at si.edu mpec at si.edu
Thu Sep 29 15:19:09 EDT 2016


M.P.E.C. 2016-S80                                Issued 2016 Sept. 28, 15:48 UT
 
     The Minor Planet Electronic Circulars contain information on unusual
         minor planets and routine data on comets.  They are published
    on behalf of Division F of the International Astronomical Union by the
          Minor Planet Center, Smithsonian Astrophysical Observatory,
                          Cambridge, MA 02138, U.S.A.

             Prepared using the Tamkin Foundation Computer Network

                              MPC at CFA.HARVARD.EDU
            URL http://www.minorplanetcenter.net/    ISSN 1523-6714


                                   2016 SN3
 
Observations:
     K16S03N* C2016 09 25.31013 23 28 49.13 -11 38 30.4          20.5 VqES080G96
     K16S03N  C2016 09 25.31440 23 28 48.59 -11 38 17.7          20.6 VqES080G96
     K16S03N  C2016 09 25.32296 23 28 47.44 -11 37 51.1          20.0 VqES080G96
     K16S03N  C2016 09 25.39192 23 28 38.42 -11 34 22.8          20.7 VqES080G96
     K16S03N  C2016 09 25.40003 23 28 37.42 -11 33 59.9          20.5 VqES080G96
     K16S03N  C2016 09 25.40450 23 28 36.81 -11 33 44.6          20.6 VqES080G96
     K16S03N |C2016 09 26.04193 23 27 31.85 -11 02 47.1          20.3 VuES080807
     K16S03N |C2016 09 26.04695 23 27 31.27 -11 02 33.6          20.4 VuES080807
     K16S03N |C2016 09 26.05208 23 27 30.70 -11 02 19.8          20.4 VuES080807
     K16S03N KC2016 09 26.31833 23 27 01.56 -10 51 19.7          21.1 RoES080291
     K16S03N KC2016 09 26.32039 23 27 01.31 -10 51 14.3          21.0 RoES080291
     K16S03N KC2016 09 26.32247 23 27 01.08 -10 51 08.7          21.1 RoES080291
     K16S03N |C2016 09 27.04976 23 25 56.56 -10 20 10.7          21.3 VuES080807
     K16S03N |C2016 09 27.05577 23 25 55.96 -10 19 56.5          21.1 VuES080807
     K16S03N |C2016 09 27.06171 23 25 55.38 -10 19 42.5          21.1 VuES080807
     K16S03N |C2016 09 28.16149 23 24 26.66 -09 39 07.9          21.5 VuES080807
     K16S03N |C2016 09 28.16526 23 24 26.35 -09 38 59.7          21.5 VuES080807
     K16S03N |C2016 09 28.16903 23 24 26.04 -09 38 52.0          21.6 VuES080807
 
Observer details:
291 LPL/Spacewatch II.  Observer T. H. Bressi.  1.8-m f/2.7 reflector + CCD.
807 Cerro Tololo.  Observers T. Linder, R. Holmes.  0.61-m f/6.5 astrograph
    + CCD.
G96 Mt. Lemmon Survey.  Observer D. C. Fuls.  Measurers E. J. Christensen,
    D. C. Fuls, A. R. Gibbs, A. D. Grauer, J. A. Johnson, R. A. Kowalski,
    S. M. Larson, G. J. Leonard, R. G. Matheny, R. L. Seaman, F. C. Shelly.
    1.5-m reflector + 10K CCD.
 
Orbital elements:
2016 SN3                                                 Earth MOID = 0.0367 AU
Epoch 2016 July 31.0 TT = JDT 2457600.5                 MPC
M   1.34978              (2000.0)            P               Q
n   0.35531685     Peri.  240.39615     -0.30417488     +0.95239933
a   1.9742047      Node    11.94763     -0.83653310     -0.25684027
e   0.7352562      Incl.    5.63482     -0.45573020     -0.16422119
P   2.77           H   23.3           G   0.15           U   8
Residuals in seconds of arc
160925 G96  0.2-  0.2-    160926 807  0.1-  0.0     160927 807  0.2-  0.2-
160925 G96  0.3+  0.4-    160926 807  0.1-  0.1+    160927 807  0.2-  0.1-
160925 G96  0.1+  0.3+    160926 807  0.2+  0.1+    160927 807  0.0   0.0
160925 G96  0.1-  0.5+    160926 291  0.1+  0.1-    160928 807  0.2-  0.1-
160925 G96  0.4+  1.0-    160926 291  0.1-  0.1-    160928 807  0.1+  0.2+
160925 G96  0.3-  0.8+    160926 291  0.0   0.1+    160928 807  0.4+  0.1+

Ephemeris:
2016 SN3                 a,e,i = 1.97, 0.74, 6                   q = 0.5227
Date    TT    R. A. (2000) Decl.     Delta      r     Elong.  Phase     V
2016 08 29    10 42 29.3 -06 57 35   0.2054  0.8152    16.6   159.3    30.1
...
2016 09 13    04 26 42.8 -59 03 13   0.03720 1.0137   100.7    77.2    18.9
...
2016 09 21    23 41 47.6 -16 53 21   0.1181  1.1177   163.6    14.7    19.7
...
2016 09 27    23 25 59.4 -10 22 27   0.1989  1.1939   162.9    14.3    21.0
2016 09 28    23 24 38.7 -09 45 01   0.2128  1.2064   162.1    14.8    21.2
2016 09 29    23 23 30.0 -09 11 49   0.2269  1.2189   161.3    15.3    21.4
...
2016 10 05    23 19 28.9 -06 49 49   0.3135  1.2926   156.0    18.4    22.3
...
2016 10 13    23 18 31.1 -04 56 55   0.4352  1.3880   148.7    21.9    23.3
...
2016 10 28    23 23 21.2 -02 42 42   0.6834  1.5578   135.7    26.4    24.6

A. U. Tomatic                (C) Copyright 2016 MPC           M.P.E.C. 2016-S80




More information about the Iaude mailing list